Weather History for OEGS - November, 2012

Change the Weather History Date:

Tuesday, November 6, 2012

  Actual Average Record
Temperature  
Mean Temperature 76 °F -  
Max Temperature 93 °F 75 °F 93 °F (1999)
Min Temperature 59 °F 53 °F 53 °F (2000)
Cooling Degree Days 11    
Growing Degree Days 26 (Base 50)    
Moisture  
Dew Point 46 °F    
Average Humidity 32    
Maximum Humidity 52    
Minimum Humidity 13    
Precipitation  
Precipitation 0.00 in - - ()
Sea Level Pressure  
Sea Level Pressure 30.02 in    
Wind  
Wind Speed 2 mph ()    
Max Wind Speed 9 mph    
Max Gust Speed -    
Visibility 5.8 miles    
Events      
Averages and records for this station are not official NWS values.
T = Trace of Precipitation, MM = Missing Value Source: Averaged Metar Reports

Daily Weather History Graph

Daily Weather History Graph

Search for Another Location

Airport or City:

Trip Planner

Search our weather history database for the weather conditions in past years. The results will help you decide how hot, cold, wet, or windy it might be!

Date:

Astronomy

Nov. 06, 2012 Rise Set
Actual Time 6:17 AM AST 5:19 PM AST
Civil Twilight 5:53 AM AST 5:43 PM AST
Nautical Twilight 5:25 AM AST 6:10 PM AST
Astronomical Twilight 4:58 AM AST 6:38 PM AST
Moon 11:30 PM AST (11/6) 12:00 PM AST (11/6)
Length of Visible Light 11h 50m
Length of Day
11h 02m
Waning Gibbous, 56% of the Moon is Illuminated
Nov 6
Waning Gibbous
Nov 7
Last Quarter
Nov 14
New
Nov 20
First Quarter
Nov 28
Full

Hourly Weather History & Observations

Time (AST) Temp. Dew Point Humidity Pressure Visibility Wind Dir Wind Speed Gust Speed Precip Events Conditions
12:00 AM 71 °F 43 °F 25% 29.92 in 6 mi Calm Calm - -  
12:00 AM 71.6 °F 42.8 °F 35% 30.04 in - Calm Calm - N/A   Clear
1:00 AM 71.6 °F 42.8 °F 35% 30.04 in - Calm Calm - N/A   Clear
2:00 AM 68.0 °F 44.6 °F 43% 30.04 in - Calm Calm - N/A   Clear
3:00 AM 64 °F 45 °F 38% 29.91 in 6 mi Calm Calm - -  
3:00 AM 64.4 °F 44.6 °F 49% 30.04 in - Calm Calm - N/A   Clear
4:00 AM 64.4 °F 44.6 °F 49% 30.01 in - Calm Calm - N/A   Clear
5:00 AM 64.4 °F 44.6 °F 49% 30.04 in - Calm Calm - N/A   Clear
6:00 AM 63 °F 45 °F 40% 29.94 in 6 mi Calm Calm - -  
6:00 AM 62.6 °F 44.6 °F 52% 30.04 in - Calm Calm - N/A   Clear
7:00 AM 64.4 °F 46.4 °F 52% 30.06 in - Calm Calm - N/A   Clear
8:00 AM 68.0 °F 46.4 °F 46% 30.06 in - Calm Calm - N/A   Clear
9:00 AM 73 °F 48 °F 30% 29.99 in 4 mi SSW 2.3 mph - -   Widespread Dust
9:00 AM 73.4 °F 48.2 °F 41% 30.09 in 4.3 mi SSW 2.3 mph - N/A   Scattered Clouds
10:00 AM 78.8 °F 48.2 °F 34% 30.09 in 4.3 mi South 4.6 mph - N/A   Scattered Clouds
11:00 AM 84.2 °F 46.4 °F 27% 30.06 in 6.2 mi South 5.8 mph - N/A   Scattered Clouds
12:00 PM 88 °F 46 °F 15% 29.94 in 6 mi South 5.8 mph - -   Mostly Cloudy
12:00 PM 87.8 °F 46.4 °F 24% 30.06 in 6.2 mi South 5.8 mph - N/A   Scattered Clouds
1:00 PM 91.4 °F 48.2 °F 23% 30.04 in 6.2 mi SW 2.3 mph - N/A   Scattered Clouds
2:00 PM 91.4 °F 48.2 °F 23% 30.01 in - East 4.6 mph - N/A   Clear
3:00 PM 93 °F 48 °F 13% 29.86 in 6 mi ENE 4.6 mph - -  
3:00 PM 93.2 °F 48.2 °F 21% 29.98 in - ENE 4.6 mph - N/A   Clear
4:00 PM 91.4 °F 48.2 °F 23% 30.01 in - East 4.6 mph - N/A   Clear
5:00 PM 89.6 °F 48.2 °F 24% 30.01 in 6.2 mi East 9.2 mph - N/A   Scattered Clouds
6:00 PM 86 °F 46 °F 16% 29.93 in 6 mi ENE 5.8 mph - -   Mostly Cloudy
6:00 PM 86.0 °F 46.4 °F 25% 30.04 in 6.2 mi ENE 5.8 mph - N/A   Scattered Clouds
7:00 PM 82.4 °F 46.4 °F 28% 30.04 in 6.2 mi NE 5.8 mph - N/A   Scattered Clouds
9:00 PM 77 °F 43 °F 19% 29.98 in 6 mi ENE 5.8 mph - -   Mostly Cloudy
9:00 PM 77.0 °F 42.8 °F 29% 30.09 in 6.2 mi ENE 5.8 mph - N/A   Scattered Clouds
10:00 PM 77.0 °F 42.8 °F 29% 30.09 in - ENE 6.9 mph - N/A   Clear
11:00 PM 77.0 °F 42.8 °F 29% 30.09 in - ENE 8.1 mph - N/A   Clear